Location: Be?i?
(36.9044°N, 30.1006°E)
Time: 11:40:45
(UTC+00:00)

Milstar 3 - Pass Details

Date: 05 August 2024
Orbit: 1098 x 5146 km, 28.2° (Epoch: 08 September)

Event Time Altitude Azimuth Distance (km) Brightness Sun altitude
Rises 17:19:08 0° 248° (WSW) 4,296 6.6 -4.0°
Reaches altitude 10° 17:22:20 10° 241° (WSW) 3,107 5.7 -4.6°
Maximum altitude 17:28:43 40° 173° (S) 1,559 3.4 -5.7°
Drops below altitude 10° 17:35:15 10° 105° (ESE) 3,182 4.5 -6.9°
Enters shadow 17:36:13 - 102° (ESE) 3,537 4.8 -7.0°
